Theta_e
322 322 328 323 306 305 300 300 308 306 309 314 316 317 317 319 315 311 338 340 339 339 345 348 347 346 345 345 347 349 348 346 345 343 340 339 338 337 336 334 338 335 334 335 335 336 336 334 333
318 321 326 318 302 296 300 304 303 308 311 316 318 322 320 318 326 330 336 341 340 340 345 345 344 346 345 344 346 348 347 347 345 342 340 338 337 336 335 334 337 334 334 336 335 335 334 333 332
318 319 317 310 304 296 298 303 305 309 313 314 316 319 322 322 329 332 340 342 340 341 344 344 343 346 345 344 345 347 347 347 346 343 340 338 336 335 336 336 337 334 334 334 336 333 333 332 331
320 321 317 305 300 303 302 305 309 309 311 312 312 310 321 333 333 336 339 342 340 340 344 343 344 346 344 344 346 348 348 347 346 345 341 338 336 338 337 336 337 334 333 333 333 333 333 330 329
322 317 305 302 302 305 308 309 310 308 309 311 313 310 315 332 337 339 339 340 340 340 343 345 343 344 344 345 347 348 347 346 346 343 341 340 338 338 337 336 336 334 333 332 332 332 330 328 326
313 314 302 300 302 305 308 306 309 309 310 312 314 315 320 330 331 337 339 340 341 341 342 344 338 339 341 343 345 345 346 345 344 343 341 340 339 337 337 335 336 332 333 333 331 330 327 325 324
310 308 302 302 302 303 302 304 307 306 309 310 318 312 320 323 327 337 340 340 340 341 341 342 344 341 335 338 341 342 342 343 342 341 340 338 337 336 335 335 335 335 333 332 330 328 326 324 323
313 309 302 303 301 301 300 299 305 304 306 313 315 310 311 320 320 334 338 339 339 339 340 341 341 342 341 340 333 336 338 338 339 337 334 333 332 333 333 331 333 333 332 331 330 328 326 324 324
313 304 300 300 295 297 299 295 303 305 305 306 311 308 304 307 318 327 331 333 334 336 337 338 338 340 340 339 333 332 332 333 333 333 329 329 334 333 331 328 331 334 333 332 330 328 326 325 325
307 302 296 293 293 292 294 295 297 299 301 303 301 302 301 303 307 316 323 326 331 332 335 336 337 338 339 338 338 337 342 342 340 338 338 336 334 334 331 326 327 330 330 331 331 328 327 322 320
296 297 292 290 291 290 292 293 294 292 296 298 293 294 296 298 300 302 311 323 328 333 333 334 336 337 336 337 338 335 336 341 341 340 336 337 335 335 333 332 330 331 324 328 328 326 323 322 322
291 290 291 289 289 289 289 290 289 291 294 294 293 294 294 294 296 298 301 303 322 330 333 333 335 336 336 335 335 336 335 338 338 339 336 335 335 334 333 331 330 329 329 325 325 323 324 323 322
289 289 289 289 288 289 289 288 288 291 294 293 293 293 293 293 294 297 299 302 308 325 331 333 334 334 335 334 332 333 332 335 337 337 335 337 335 333 333 331 329 328 328 327 324 324 322 322 321
289 289 287 287 288 288 287 288 290 291 292 291 291 292 293 293 294 296 298 299 302 307 323 333 333 334 334 333 332 330 332 332 335 338 338 337 336 334 333 331 329 327 327 327 326 324 322 321 321
287 285 287 286 287 286 288 288 287 291 291 290 291 293 294 295 296 296 299 299 301 304 310 322 333 334 331 330 331 330 330 329 331 334 337 337 337 334 333 331 328 326 327 327 326 325 325 323 322
283 285 283 284 286 286 287 285 289 291 289 289 290 292 293 296 298 301 303 304 303 308 311 318 330 332 331 331 330 330 330 330 330 332 335 336 335 334 333 331 328 327 326 326 325 324 323 323 321
284 282 280 282 284 285 284 284 289 291 289 288 290 292 293 294 296 298 301 305 308 311 309 312 320 330 331 330 330 330 330 329 330 330 332 334 333 332 333 331 328 326 325 324 324 324 323 322 322
279 280 280 280 283 284 283 285 288 289 288 288 290 291 292 293 293 296 298 301 306 310 308 307 308 310 329 329 329 330 329 329 330 329 329 332 332 332 332 330 327 325 324 323 324 323 324 323 322
280 279 279 281 283 281 283 283 286 288 288 288 289 290 291 292 295 295 296 299 299 303 307 306 304 305 309 327 325 325 324 326 327 328 328 330 331 332 332 330 327 325 323 323 323 323 323 322 323
280 280 280 282 282 281 282 282 286 287 286 288 288 289 290 292 293 294 294 295 297 298 300 302 302 303 305 308 323 328 326 326 326 327 327 328 330 331 331 329 326 324 323 323 323 323 321 322 323
280 279 278 277 280 281 281 283 283 286 287 288 289 290 291 291 292 292 293 293 295 296 298 299 299 301 303 305 310 314 326 326 324 324 324 325 328 330 330 328 327 324 324 323 323 323 322 319 321
278 281 280 278 278 279 281 279 282 284 285 286 288 289 289 291 293 292 292 292 293 294 297 299 299 300 301 302 304 306 307 316 323 323 324 324 326 327 328 328 327 325 326 324 325 324 323 322 319
280 282 279 278 278 276 277 277 283 282 283 285 287 288 289 291 292 291 291 292 293 295 295 297 297 298 300 300 300 302 304 308 310 318 323 323 325 328 329 328 326 325 326 326 326 325 325 325 322
282 280 278 278 277 276 276 276 281 282 283 285 287 288 289 290 291 291 292 293 293 295 295 295 295 295 297 298 300 301 303 305 308 309 309 322 323 324 327 327 326 326 327 326 326 326 325 324 324
282 279 280 279 278 278 276 275 281 284 286 286 286 287 289 290 290 290 290 291 292 293 294 294 294 293 294 296 299 301 302 304 305 308 310 310 322 323 323 324 326 326 327 327 327 327 326 322 322
278 277 277 272 273 275 277 272 281 285 286 287 288 287 288 289 289 290 290 291 291 292 292 293 293 292 293 294 297 300 302 304 305 308 310 312 311 323 325 324 323 325 326 327 327 327 327 326 324
277 276 278 274 271 269 276 278 284 285 284 285 286 287 288 288 289 289 290 291 291 292 291 291 291 292 293 294 296 298 302 302 304 306 308 311 312 321 324 324 323 323 324 325 325 324 324 325 325
279 280 275 275 271 270 275 274 277 282 284 286 286 286 287 288 289 289 290 291 291 291 291 291 291 291 292 294 295 297 300 301 302 305 307 311 313 314 323 322 322 323 322 323 322 321 323 322 322
276 276 274 275 274 271 269 277 285 283 284 284 285 286 287 288 288 289 290 290 290 291 291 291 291 291 291 293 295 297 298 299 301 303 306 309 314 316 317 321 321 320 320 320 320 320 319 318 306
278 277 277 275 272 273 271 274 285 283 284 283 284 286 287 288 289 289 289 289 290 291 290 290 291 291 291 293 295 296 297 298 299 302 305 309 311 315 314 315 316 318 318 318 318 313 309 304 300
Wind_Speed
17 9 4 3 4 4 2 0 4 4 8 5 8 8 9 9 6 6 3 10 4 15 17 20 19 19 18 17 16 16 17 18 17 17 14 13 13 13 13 10 9 10 9 9 7 9 9 7 6
12 5 3 2 4 5 1 3 6 2 12 11 4 7 7 8 3 3 1 9 8 16 16 19 17 19 18 17 17 17 17 17 18 18 15 14 13 14 13 11 10 10 10 9 10 9 8 6 5
7 3 4 2 2 5 2 3 6 4 12 10 7 7 7 6 4 7 5 8 11 15 16 16 15 18 18 18 18 16 18 17 18 18 17 15 14 13 13 12 11 10 10 10 10 9 7 6 5
4 3 3 6 8 4 3 6 7 10 10 8 10 10 4 9 10 11 5 6 10 14 15 15 16 17 16 17 17 18 18 18 19 18 15 16 14 12 11 12 11 11 10 9 9 9 7 5 5
1 2 6 6 6 3 4 9 10 10 8 10 9 10 10 8 9 8 4 6 10 12 13 15 15 16 16 16 15 17 18 18 19 17 16 15 14 13 12 12 10 12 11 10 9 8 6 5 5
3 2 7 9 5 2 4 14 9 11 7 7 3 8 4 3 15 9 2 5 8 12 12 14 13 12 13 16 14 15 18 20 19 17 16 16 15 14 12 12 12 12 12 10 8 8 6 5 5
5 6 11 10 9 8 6 17 10 13 14 9 14 11 4 21 23 13 6 4 7 10 11 13 16 15 11 13 11 12 14 17 17 19 17 16 15 14 14 12 10 11 11 10 9 8 7 6 5
1 3 5 5 7 3 9 15 8 12 10 15 11 10 18 20 22 14 8 7 7 10 11 13 14 15 15 14 11 10 11 11 13 15 14 14 12 12 11 9 10 13 9 10 10 9 8 7 6
2 5 6 3 5 6 13 12 10 11 12 14 6 12 19 24 22 13 10 8 8 9 11 12 13 14 15 14 13 10 10 11 10 12 12 11 12 14 14 12 11 11 10 10 10 9 8 6 5
2 3 4 6 5 7 11 10 13 11 18 17 16 18 21 23 21 19 14 14 12 12 12 12 13 15 14 11 13 15 15 13 13 11 14 13 13 13 12 11 10 10 10 10 10 10 8 6 6
5 4 4 4 7 6 8 10 6 13 12 10 20 25 25 24 21 19 20 16 16 14 12 13 14 15 16 12 10 8 9 9 11 17 11 14 10 9 9 8 9 10 10 9 10 9 8 9 6
6 5 2 3 6 4 8 11 11 13 12 12 17 21 22 22 21 21 20 20 20 14 16 14 14 16 17 11 8 10 10 8 9 12 13 10 8 10 10 8 10 10 8 10 9 7 8 8 8
7 4 4 5 9 4 12 12 6 9 6 20 21 20 21 21 23 21 21 20 19 15 16 16 16 16 16 16 11 10 13 10 9 10 13 12 10 11 11 10 9 9 9 9 9 8 8 8 8
4 3 2 8 10 1 18 10 6 11 15 18 18 22 22 21 21 21 20 22 20 18 15 17 18 19 17 15 17 11 12 12 10 10 12 19 12 11 11 11 10 10 10 9 9 9 8 7 7
4 3 3 9 12 7 21 3 10 15 18 19 19 18 20 21 19 19 20 20 20 19 19 16 20 20 17 17 17 12 13 13 11 11 16 18 17 15 14 11 11 10 10 12 9 9 8 7 7
3 1 3 5 11 5 14 9 8 14 14 16 15 15 17 21 18 19 19 20 16 19 18 17 14 19 17 17 14 12 12 11 11 11 13 19 19 16 15 11 11 11 10 10 9 9 8 8 8
5 1 2 3 1 8 6 9 15 14 12 14 12 13 16 16 19 19 22 20 18 16 17 20 20 18 18 16 13 14 16 12 11 10 13 19 17 14 14 12 11 12 10 10 10 10 9 8 8
5 4 4 5 4 14 5 13 15 10 11 12 9 11 14 15 17 17 20 21 19 19 17 16 15 23 16 13 12 9 10 11 11 12 12 19 15 16 15 12 13 12 11 11 11 12 10 9 8
3 5 8 3 2 13 8 16 12 8 8 12 11 12 14 12 13 15 17 18 20 18 17 17 18 19 19 10 9 11 12 11 12 12 15 16 15 18 17 13 13 13 13 13 13 11 13 9 8
5 8 8 11 4 9 8 20 10 7 4 9 11 13 14 12 13 15 17 17 16 17 16 17 13 18 16 14 12 9 10 11 11 12 14 15 17 20 17 16 14 15 12 14 14 13 10 9 9
3 8 10 9 15 4 14 6 6 4 5 5 10 11 15 14 12 14 18 17 17 16 13 13 13 15 14 14 13 15 8 6 10 11 11 15 19 19 20 19 15 15 13 12 15 14 16 11 10
3 3 13 14 8 5 10 7 3 3 9 6 11 13 16 13 14 15 18 19 19 15 14 13 10 9 11 14 15 17 13 14 5 9 13 15 19 19 19 18 17 16 12 14 13 13 13 13 11
6 15 10 5 5 5 1 5 4 4 6 9 10 13 15 14 13 16 18 20 19 15 14 15 14 12 9 9 9 10 15 11 11 15 16 16 16 21 21 20 19 17 14 14 14 14 15 11 10
13 6 4 3 3 3 4 5 7 5 5 8 8 12 14 15 17 18 18 18 16 15 15 14 16 16 13 11 11 11 11 13 10 12 14 12 13 14 20 20 18 18 16 16 15 15 16 13 13
11 6 3 2 3 4 4 9 14 8 7 8 9 11 13 15 18 19 20 19 18 18 17 14 15 18 17 15 14 12 10 8 13 14 10 15 11 12 16 19 19 16 17 17 16 16 16 15 12
5 5 3 6 5 11 6 10 4 6 7 13 11 10 12 17 18 19 21 21 21 21 19 17 17 17 17 17 16 13 11 7 7 10 11 11 13 14 18 18 18 20 19 18 17 14 14 16 14
3 3 2 3 1 5 5 7 16 7 6 6 9 10 14 19 19 21 22 21 21 21 20 19 18 16 16 16 14 15 14 11 9 10 12 10 15 17 16 20 19 18 19 19 18 14 15 14 14
2 6 2 1 5 8 8 8 11 11 9 10 14 17 19 20 22 22 21 21 20 20 19 18 17 18 17 15 15 13 15 13 10 10 12 14 15 14 17 17 17 17 17 18 18 15 15 15 12
5 4 2 2 3 4 8 10 7 13 11 10 14 18 23 21 21 22 21 22 21 20 19 17 17 18 17 15 14 14 12 15 14 12 11 12 11 13 17 16 16 15 17 17 17 16 14 14 10
2 4 6 3 5 5 4 16 6 11 9 9 17 24 23 21 22 22 21 22 21 21 17 19 19 17 17 17 14 13 13 11 14 13 10 11 12 10 13 6 4 10 11 12 16 13 11 13 12
Wind_Direction
328 325 283 243 248 263 262 211 301 326 353 347 307 285 318 310 308 335 12 188 187 168 172 174 169 169 170 172 173 165 163 164 164 147 153 154 155 151 151 162 149 138 146 154 147 128 117 104 87
322 319 240 147 253 260 39 341 265 44 349 337 310 299 269 289 298 296 196 180 187 169 174 179 171 170 173 174 176 170 172 171 162 152 158 157 160 160 163 157 150 163 157 154 157 147 124 115 97
304 302 271 252 233 255 295 61 2 280 327 349 345 323 313 327 2 342 359 173 180 173 178 178 169 174 176 179 178 180 178 174 166 160 159 165 168 166 164 171 152 160 162 163 161 156 144 125 99
324 197 161 246 231 213 251 340 346 308 317 322 332 312 312 20 355 348 335 185 192 181 181 154 172 177 181 184 185 183 184 175 169 166 164 170 170 168 174 173 176 162 167 172 168 163 156 140 112
273 254 257 257 269 309 299 347 333 317 325 339 345 328 319 30 349 349 327 197 203 191 191 175 180 181 183 188 193 187 184 179 171 164 168 171 175 169 174 184 170 171 174 175 173 170 165 148 125
186 287 251 265 270 308 32 359 320 335 330 16 29 333 14 356 0 349 291 214 216 202 198 192 185 182 186 188 198 196 186 177 171 164 171 173 174 171 175 189 177 186 192 176 175 179 170 164 152
237 226 259 274 275 282 26 345 21 350 334 15 322 313 314 27 357 338 304 232 212 223 210 204 195 196 186 190 195 190 192 181 173 171 176 176 173 179 178 181 197 195 177 178 184 184 183 183 173
187 245 242 247 286 293 6 342 337 348 319 334 350 357 339 339 343 332 309 278 238 218 222 219 211 203 205 201 194 190 195 199 183 178 184 168 172 177 182 182 197 194 183 191 194 194 198 201 196
308 219 253 291 352 341 341 343 325 320 276 323 341 347 336 332 330 329 310 277 261 244 227 223 222 220 216 212 201 198 199 199 190 182 179 171 187 187 185 193 176 194 192 200 205 207 211 213 222
342 237 72 61 14 323 317 324 327 321 317 310 325 335 338 336 338 327 314 299 272 241 230 228 224 223 223 219 216 213 206 208 200 194 190 196 198 191 193 187 178 187 194 200 213 214 211 215 231
27 74 127 49 16 321 311 298 308 309 296 350 332 329 332 327 329 328 325 308 286 265 231 220 225 219 219 223 218 215 212 214 208 200 190 202 204 197 197 192 194 202 199 214 208 210 223 224 233
107 83 50 39 353 317 323 310 299 288 312 339 323 323 322 324 322 321 322 318 306 275 251 223 218 226 220 219 214 222 224 209 207 201 195 196 201 202 200 201 198 202 200 213 215 218 226 229 234
75 95 66 4 352 45 330 314 323 306 344 333 333 331 332 329 324 321 317 311 314 295 266 234 219 219 225 218 225 218 222 220 207 199 199 201 200 207 203 204 202 204 204 206 212 221 224 229 236
36 39 64 11 349 346 349 312 313 18 340 334 340 338 337 332 326 320 320 316 315 306 288 262 228 222 217 217 221 220 228 216 223 213 199 211 201 207 209 206 209 209 208 208 212 216 221 230 233
22 104 140 20 347 353 336 117 9 354 342 343 351 351 344 340 332 325 328 318 310 305 301 278 240 225 208 216 215 218 222 219 214 221 216 212 212 209 212 213 212 211 209 214 213 216 221 228 228
41 65 300 46 356 0 334 3 22 357 339 337 348 359 353 350 347 341 340 331 324 319 312 300 261 232 222 215 214 212 215 215 213 220 216 215 211 211 213 216 217 216 210 210 211 212 217 225 226
44 92 299 304 218 326 348 315 334 339 336 336 350 0 357 360 2 359 358 346 334 350 4 11 342 262 227 221 222 215 213 210 211 216 225 214 211 207 218 216 219 218 215 213 211 212 219 223 228
6 326 258 262 342 332 295 291 313 336 340 339 344 2 351 353 2 3 6 6 349 328 341 3 1 359 260 227 222 219 213 207 209 212 223 224 213 203 214 220 222 214 217 217 215 216 210 223 227
297 291 307 285 187 330 317 307 308 321 332 354 338 330 341 335 348 359 1 0 358 350 339 342 349 358 344 249 225 216 213 211 211 214 219 220 216 211 213 219 221 219 219 219 218 219 222 215 222
275 312 347 292 271 325 306 304 289 281 314 353 334 330 327 327 331 345 348 353 356 353 348 341 342 331 340 342 316 227 220 218 214 213 210 214 214 215 214 213 216 215 219 218 218 214 212 224 206
255 347 342 308 313 225 308 245 254 220 282 320 343 333 335 331 323 333 338 339 341 338 341 341 333 323 317 332 322 338 243 223 220 213 212 207 214 215 212 210 211 214 213 216 216 212 211 211 210
296 3 314 302 304 326 356 296 287 260 310 298 340 339 337 328 321 323 329 331 331 321 318 314 313 307 312 327 324 317 306 312 240 220 214 212 208 215 215 214 209 210 208 216 212 210 213 216 213
278 327 303 280 273 304 96 282 259 277 305 337 339 327 328 328 317 318 320 321 323 320 313 309 304 295 282 290 309 313 307 295 293 306 221 211 210 209 211 209 207 207 210 210 214 208 206 208 217
298 295 213 203 259 256 122 4 267 226 311 319 326 321 321 326 317 313 316 319 321 319 311 309 305 294 295 290 275 272 292 310 299 293 301 232 209 210 213 206 209 207 205 207 203 208 207 206 208
355 305 320 309 336 292 166 290 265 257 273 272 293 295 303 319 321 320 316 316 314 315 313 307 309 301 296 288 281 274 273 285 290 281 292 300 231 204 210 205 205 207 206 203 201 200 202 204 208
27 348 32 301 311 302 202 239 250 284 274 282 272 266 286 313 320 317 316 315 313 313 310 310 307 302 299 295 288 285 280 266 258 275 275 278 305 229 205 204 205 206 202 206 203 204 204 201 204
90 70 20 287 44 287 249 272 272 296 260 240 270 287 303 321 320 318 319 315 312 313 308 308 302 300 297 300 287 284 281 271 275 274 277 275 274 274 215 208 203 205 206 203 200 204 207 204 204
1 124 173 109 303 289 283 285 257 280 302 327 312 310 316 318 320 321 320 316 314 310 306 308 303 301 295 299 290 280 283 282 273 269 263 261 277 288 239 205 202 206 206 204 203 202 205 204 206
153 170 131 295 220 270 306 281 240 280 292 296 303 306 309 314 314 317 319 316 313 310 307 305 307 305 300 302 301 285 287 296 278 268 274 270 265 276 273 207 204 201 203 202 202 206 197 193 162
325 193 189 215 192 223 262 269 292 277 298 305 304 307 308 309 312 316 317 315 315 315 310 306 308 300 300 303 302 289 288 295 293 287 276 281 278 248 255 309 234 198 209 204 210 182 172 159 152